Weather History for Horseshoe Bay, TX

Change the Weather History Date:

Tuesday, April 8, 2014

  Actual Average (KBMQ) Record (KBMQ)
Temperature  
Mean Temperature 61 °F -  
Max Temperature 75 °F 73 °F 91 °F (2011)
Min Temperature 47 °F 51 °F 32 °F (2007)
Degree Days  
Heating Degree Days 4    
Growing Degree Days 11 (Base 50)    
Moisture  
Dew Point 37 °F    
Average Humidity 50    
Maximum Humidity 90    
Minimum Humidity 18    
Precipitation  
Precipitation 0.02 in - - ()
Sea Level Pressure  
Sea Level Pressure 30.15 in    
Wind  
Wind Speed 6 mph (WNW)    
Max Wind Speed 17 mph    
Max Gust Speed 26 mph    
Visibility 10 miles    
Events      
Averages and records for this station are not official NWS values.
T = Trace of Precipitation, MM = Missing Value Source: NWS Daily Summary

Daily Weather History Graph

Daily Weather History Graph

Search for Another Location

Airport:

Trip Planner

Search our weather history database for the weather conditions in past years. The results will help you decide how hot, cold, wet, or windy it might be!

Date:

Astronomy

Apr. 08, 2014 Rise Set
Actual Time 6:14 AM MDT 6:56 PM MDT
Civil Twilight 5:49 AM MDT 7:21 PM MDT
Nautical Twilight 5:20 AM MDT 7:50 PM MDT
Astronomical Twilight 4:51 AM MDT 8:19 PM MDT
Moon 1:14 PM MDT (4/8) 2:03 AM MDT (4/8)
Length of Visible Light 13h 31m
Length of Day
12h 42m
Waxing Gibbous, 63% of the Moon is Illuminated
Apr 8
Waxing Gibbous
Apr 15
Full
Apr 22
Last Quarter
Apr 29
New
May 6
First Quarter

Hourly Weather History & Observations

Time (MDT) Temp. Dew Point Humidity Pressure Visibility Wind Dir Wind Speed Gust Speed Precip Events Conditions
12:15 AM 50.4 °F 46.8 °F 87% 30.07 in 10.0 mi WSW 4.6 mph - N/A   Clear
12:35 AM 50.4 °F 46.4 °F 86% 30.07 in 10.0 mi Calm Calm - N/A   Clear
12:55 AM 49.1 °F 45.7 °F 88% 30.07 in 10.0 mi Calm Calm - N/A   Clear
1:15 AM 48.6 °F 45.7 °F 90% 30.07 in 10.0 mi WSW 3.5 mph - N/A   Clear
1:35 AM 48.7 °F 45.1 °F 87% 30.07 in 10.0 mi SW 4.6 mph - N/A   Clear
1:55 AM 48.6 °F 44.8 °F 87% 30.07 in 10.0 mi WSW 4.6 mph - N/A   Clear
2:15 AM 49.3 °F 44.4 °F 83% 30.07 in 10.0 mi WSW 4.6 mph - N/A   Clear
2:35 AM 49.6 °F 43.7 °F 80% 30.07 in 10.0 mi Calm Calm - N/A   Clear
2:55 AM 48.6 °F 43.0 °F 81% 30.07 in 10.0 mi Calm Calm - N/A   Clear
3:15 AM 49.1 °F 43.7 °F 82% 30.07 in 10.0 mi WSW 5.8 mph - N/A   Clear
3:35 AM 50.4 °F 43.7 °F 78% 30.08 in 10.0 mi WSW 4.6 mph - N/A   Clear
3:55 AM 50.2 °F 43.3 °F 77% 30.10 in 10.0 mi West 4.6 mph - N/A   Clear
4:15 AM 50.0 °F 43.2 °F 77% 30.10 in 10.0 mi West 3.5 mph - N/A   Clear
4:35 AM 50.2 °F 42.8 °F 76% 30.12 in 10.0 mi West 4.6 mph - N/A   Clear
4:55 AM 49.8 °F 42.4 °F 76% 30.13 in 10.0 mi West 4.6 mph - N/A   Clear
5:15 AM 49.1 °F 42.1 °F 77% 30.13 in 10.0 mi WSW 4.6 mph - N/A   Clear
5:35 AM 48.0 °F 41.9 °F 79% 30.14 in 10.0 mi WSW 3.5 mph - N/A   Clear
5:55 AM 48.2 °F 41.9 °F 79% 30.15 in 10.0 mi SW 4.6 mph - N/A   Clear
6:15 AM 47.7 °F 41.5 °F 79% 30.16 in 10.0 mi Calm Calm - N/A   Clear
6:35 AM 48.2 °F 41.2 °F 77% 30.16 in 10.0 mi Calm Calm - N/A   Clear
6:55 AM 49.5 °F 41.9 °F 75% 30.17 in 10.0 mi Calm Calm - N/A   Clear
7:15 AM 50.7 °F 42.3 °F 73% 30.17 in 10.0 mi Calm Calm - N/A   Clear
7:35 AM 51.8 °F 43.2 °F 72% 30.18 in 10.0 mi West 4.6 mph - N/A   Clear
7:55 AM 52.9 °F 42.4 °F 68% 30.18 in 10.0 mi WNW 5.8 mph - N/A   Clear
8:15 AM 54.7 °F 43.3 °F 66% 30.19 in 10.0 mi NW 4.6 mph - N/A   Clear
8:35 AM 57.2 °F 41.0 °F 55% 30.20 in 10.0 mi NNW 9.2 mph 16.1 mph N/A   Clear
8:55 AM 58.5 °F 39.6 °F 49% 30.20 in 10.0 mi NNW 10.4 mph - N/A   Clear
9:15 AM 59.5 °F 36.5 °F 42% 30.21 in 10.0 mi NW 10.4 mph 19.6 mph N/A   Clear
9:35 AM 61.0 °F 35.4 °F 38% 30.22 in 10.0 mi NNW 12.7 mph 20.7 mph N/A   Clear
9:55 AM 63.0 °F 34.0 °F 34% 30.22 in 10.0 mi NNW 12.7 mph 21.9 mph N/A   Clear
10:15 AM 64.0 °F 32.0 °F 30% 30.23 in 10.0 mi NNW 13.8 mph 21.9 mph N/A   Clear
10:35 AM 65.5 °F 31.8 °F 28% 30.23 in 10.0 mi NNW 15.0 mph 24.2 mph N/A   Clear
10:55 AM 66.4 °F 31.1 °F 27% 30.23 in 10.0 mi NNW 12.7 mph 23.0 mph N/A   Clear
11:15 AM 67.3 °F 31.5 °F 26% 30.23 in 10.0 mi NNW 15.0 mph 24.2 mph N/A   Clear
11:35 AM 68.9 °F 30.4 °F 24% 30.22 in 10.0 mi North 16.1 mph 25.3 mph N/A   Clear
11:55 AM 70.0 °F 30.7 °F 23% 30.21 in 10.0 mi NNW 16.1 mph 24.2 mph N/A   Clear
12:15 PM 70.2 °F 30.2 °F 23% 30.20 in 10.0 mi North 13.8 mph 23.0 mph N/A   Clear
12:35 PM 70.5 °F 29.8 °F 22% 30.20 in 10.0 mi NNW 16.1 mph 23.0 mph N/A   Clear
12:55 PM 71.1 °F 30.0 °F 22% 30.20 in 10.0 mi North 10.4 mph 21.9 mph N/A   Clear
1:15 PM 72.0 °F 28.9 °F 20% 30.19 in 10.0 mi North 13.8 mph 21.9 mph N/A   Clear
1:35 PM 71.6 °F 28.8 °F 20% 30.18 in 10.0 mi NNW 13.8 mph 26.5 mph N/A   Clear
1:55 PM 73.2 °F 30.6 °F 21% 30.17 in 10.0 mi North 10.4 mph 20.7 mph N/A   Clear
2:15 PM 73.4 °F 28.9 °F 19% 30.16 in 10.0 mi NNW 17.3 mph 24.2 mph N/A   Clear
2:35 PM 73.4 °F 28.4 °F 19% 30.15 in 10.0 mi NNW 16.1 mph 26.5 mph N/A   Clear
2:55 PM 74.1 °F 28.9 °F 19% 30.14 in 10.0 mi NNW 15.0 mph 23.0 mph N/A   Clear
3:15 PM 75.2 °F 30.6 °F 19% 30.14 in 10.0 mi North 15.0 mph 24.2 mph N/A   Clear
3:35 PM 75.0 °F 29.8 °F 19% 30.13 in 10.0 mi NW 12.7 mph 17.3 mph N/A   Clear
3:55 PM 75.6 °F 29.7 °F 18% 30.13 in 10.0 mi NW 13.8 mph 20.7 mph N/A   Clear
4:15 PM 75.6 °F 29.7 °F 18% 30.12 in 10.0 mi North 10.4 mph 18.4 mph N/A   Clear
4:35 PM 75.4 °F 28.4 °F 18% 30.12 in 10.0 mi NNW 13.8 mph 18.4 mph N/A   Clear
4:55 PM 75.6 °F 28.8 °F 18% 30.12 in 10.0 mi NNW 10.4 mph - N/A   Clear
5:15 PM 75.2 °F 28.2 °F 18% 30.12 in 10.0 mi NNW 13.8 mph 21.9 mph N/A   Clear
5:35 PM 74.8 °F 28.2 °F 18% 30.11 in 10.0 mi NNW 10.4 mph 17.3 mph N/A   Clear
5:55 PM 74.3 °F 28.4 °F 18% 30.11 in 10.0 mi North 9.2 mph 16.1 mph N/A   Clear
6:15 PM 73.6 °F 30.0 °F 20% 30.11 in 10.0 mi North 8.1 mph - N/A   Clear
6:35 PM 72.7 °F 30.4 °F 21% 30.12 in 10.0 mi NNW 4.6 mph - N/A   Clear
6:55 PM 69.8 °F 32.9 °F 26% 30.12 in 10.0 mi Calm Calm - N/A   Clear
7:15 PM 62.8 °F 37.9 °F 40% 30.13 in 10.0 mi Calm Calm - N/A   Clear
7:35 PM 59.2 °F 40.8 °F 51% 30.14 in 10.0 mi Calm Calm - N/A   Clear
7:55 PM 57.4 °F 40.6 °F 54% 30.15 in 10.0 mi South 3.5 mph - N/A   Clear
8:15 PM 56.3 °F 40.8 °F 56% 30.15 in 10.0 mi South 3.5 mph - N/A   Clear
8:35 PM 55.4 °F 40.3 °F 57% 30.16 in 10.0 mi South 3.5 mph - N/A   Clear
8:55 PM 54.5 °F 40.3 °F 59% 30.16 in 10.0 mi South 3.5 mph - N/A   Clear
9:15 PM 53.1 °F 41.0 °F 64% 30.17 in 10.0 mi SSE 3.5 mph - N/A   Clear
9:35 PM 52.9 °F 40.6 °F 63% 30.17 in 10.0 mi SSE 3.5 mph - N/A   Clear
9:55 PM 56.1 °F 37.2 °F 49% 30.18 in 10.0 mi SSE 3.5 mph - N/A   Clear
10:15 PM 57.6 °F 35.6 °F 44% 30.18 in 10.0 mi SSE 4.6 mph - N/A   Clear
10:35 PM 55.0 °F 37.2 °F 51% 30.18 in 10.0 mi SSE 3.5 mph - N/A   Clear
10:55 PM 52.2 °F 38.8 °F 60% 30.18 in 10.0 mi South 3.5 mph - N/A   Clear
11:35 PM 50.0 °F 39.6 °F 67% 30.19 in 10.0 mi SSE 3.5 mph - N/A   Clear
11:55 PM 51.3 °F 38.8 °F 63% 30.20 in 10.0 mi SSE 3.5 mph - N/A   Clear